Вернуться в каталог

STARLINK-5608

АктивенСвязьVLEO
NORAD 55353·PAYLOAD·🇺🇸 United States

Запущен Jan 26, 2023 с Cape Canaveral Space Force Station

Loading…

Ближайшие Пролёты (ближайшие 24 часа)

TLE

СвежийSource: CelesTrak SupGP

Эпоха: Sep 15, 2026, 02:59 UTC

1 55353C 23013Y   26258.12479167  .00019437  00000+0  70406-3 0  2581
2 55353  42.9999 309.9365 0001502 257.8179 249.6682 15.27566963    15

Отслеживайте STARLINK-5608 в реальном времени с AllMySat

Download on the App Store